| time (UTC) | temp F | wind direction | speed MPH | gust MPH | rain 1hr in | rain 24hr in | rain mn in | humidity % | barometer mb |
| 20260831131547 | 51 | 272 | 1.0 | 2.0 | 0.00 | 0.00 | 0.00 | 84 | 1024.8 |
| 20260831130053 | 51 | 22 | 1.0 | 4.0 | 0.00 | 0.00 | 0.00 | 84 | 1024.9 |
| 20260831124542 | 51 | 69 | 2.0 | 5.0 | 0.00 | 0.00 | 0.00 | 85 | 1025.1 |
| 20260831123047 | 51 | 30 | 1.0 | 5.0 | 0.00 | 0.00 | 0.00 | 85 | 1025.3 |
| 20260831121542 | 51 | 341 | 1.0 | 3.0 | 0.00 | 0.00 | 0.00 | 85 | 1025.5 |
| 20260831120109 | 52 | 77 | 0.0 | 4.0 | 0.00 | 0.00 | 0.00 | 83 | 1025.5 |
| 20260831114535 | 52 | 20 | 2.0 | 5.0 | 0.00 | 0.00 | 0.00 | 83 | 1025.7 |
| 20260831113034 | 51 | 29 | 1.0 | 4.0 | 0.00 | 0.00 | 0.00 | 84 | 1025.9 |
| 20260831111539 | 51 | 37 | 2.0 | 4.0 | 0.00 | 0.00 | 0.00 | 85 | 1025.9 |
| 20260831110035 | 50 | 348 | 0.0 | 2.0 | 0.00 | 0.00 | 0.00 | 84 | 1025.9 |
| 20260831104538 | 50 | 107 | 0.0 | 1.0 | 0.00 | 0.00 | 0.00 | 84 | 1026.0 |
| 20260831103030 | 51 | 107 | 0.0 | 0.0 | 0.00 | 0.00 | 0.00 | 83 | 1026.0 |
| 20260831101534 | 51 | 107 | 0.0 | 0.0 | 0.00 | 0.00 | 0.00 | 83 | 1026.2 |
| 20260831100029 | 52 | 107 | 0.0 | 0.0 | 0.00 | 0.00 | 0.00 | 82 | 1026.3 |
| 20260831094527 | 52 | 107 | 0.0 | 1.0 | 0.00 | 0.00 | 0.00 | 82 | 1026.3 |
| 20260831093025 | 53 | 107 | 0.0 | 2.0 | 0.00 | 0.00 | 0.00 | 82 | 1026.5 |
| 20260831091528 | 53 | 108 | 1.0 | 2.0 | 0.00 | 0.00 | 0.00 | 82 | 1026.5 |
| 20260831090027 | 53 | 96 | 0.0 | 2.0 | 0.00 | 0.00 | 0.00 | 82 | 1026.5 |
| 20260831084528 | 54 | 96 | 1.0 | 3.0 | 0.00 | 0.00 | 0.00 | 80 | 1026.6 |
| 20260831083025 | 55 | 111 | 1.0 | 3.0 | 0.00 | 0.00 | 0.00 | 80 | 1026.6 |
| 20260831081533 | 56 | 94 | 1.0 | 2.0 | 0.00 | 0.00 | 0.00 | 78 | 1026.7 |
| 20260831080020 | 57 | 89 | 1.0 | 2.0 | 0.00 | 0.00 | 0.00 | 77 | 1026.8 |
| 20260831074521 | 58 | 86 | 1.0 | 2.0 | 0.00 | 0.00 | 0.00 | 74 | 1026.7 |
| 20260831073023 | 59 | 67 | 0.0 | 3.0 | 0.00 | 0.00 | 0.00 | 73 | 1026.7 |
| 20260831071519 | 61 | 89 | 0.0 | 3.0 | 0.00 | 0.00 | 0.00 | 71 | 1026.7 |
| 20260831070026 | 62 | 102 | 0.0 | 3.0 | 0.00 | 0.00 | 0.00 | 69 | 1026.8 |
| 20260831064518 | 62 | 62 | 0.0 | 3.0 | 0.00 | 0.00 | 0.00 | 68 | 1026.9 |
| 20260831063016 | 62 | 88 | 0.0 | 0.0 | 0.00 | 0.00 | 0.00 | 67 | 1027.0 |
| 20260831061515 | 62 | 101 | 0.0 | 3.0 | 0.00 | 0.00 | 0.00 | 67 | 1027.0 |
| 20260831060015 | 63 | 48 | 0.0 | 2.0 | 0.00 | 0.00 | 0.00 | 65 | 1027.2 |
| 20260831054509 | 62 | 157 | 0.0 | 2.0 | 0.00 | 0.00 | 0.00 | 67 | 1027.4 |
| 20260831053008 | 62 | 86 | 0.0 | 3.0 | 0.00 | 0.00 | 0.00 | 67 | 1027.7 |
| 20260831051506 | 61 | 63 | 0.0 | 5.0 | 0.00 | 0.00 | 0.00 | 67 | 1027.9 |
| 20260831050005 | 61 | 110 | 0.0 | 3.0 | 0.00 | 0.00 | 0.00 | 69 | 1027.9 |
| 20260831044504 | 62 | 116 | 0.0 | 2.0 | 0.00 | 0.00 | 0.00 | 65 | 1028.1 |
| 20260831043001 | 62 | 125 | 1.0 | 2.0 | 0.00 | 0.00 | 0.00 | 62 | 1028.3 |
| 20260831041559 | 62 | 87 | 1.0 | 3.0 | 0.00 | 0.00 | 0.00 | 62 | 1028.6 |
| 20260831040056 | 61 | 67 | 0.0 | 2.0 | 0.00 | 0.00 | 0.00 | 64 | 1028.9 |
| 20260831034555 | 60 | 284 | 1.0 | 3.0 | 0.00 | 0.00 | 0.00 | 66 | 1029.1 |
| 20260831033056 | 59 | 314 | 2.0 | 4.0 | 0.00 | 0.00 | 0.00 | 69 | 1029.4 |
| 20260831031548 | 58 | 284 | 1.0 | 4.0 | 0.00 | 0.00 | 0.00 | 71 | 1029.7 |
| 20260831030044 | 57 | 257 | 2.0 | 7.0 | 0.00 | 0.00 | 0.00 | 71 | 1029.9 |
| 20260831024538 | 56 | 280 | 2.0 | 6.0 | 0.00 | 0.00 | 0.00 | 75 | 1030.1 |
| 20260831023037 | 55 | 284 | 0.0 | 5.0 | 0.00 | 0.00 | 0.00 | 76 | 1030.4 |
| 20260831021546 | 54 | 265 | 2.0 | 4.0 | 0.00 | 0.00 | 0.00 | 76 | 1030.7 |
| 20260831020023 | 53 | 277 | 3.0 | 6.0 | 0.00 | 0.00 | 0.00 | 77 | 1031.0 |
| 20260831014522 | 53 | 202 | 3.0 | 8.0 | 0.00 | 0.00 | 0.00 | 78 | 1031.2 |
| 20260831013018 | 52 | 272 | 2.0 | 6.0 | 0.00 | 0.00 | 0.00 | 80 | 1031.5 |
| 20260831011515 | 51 | 259 | 3.0 | 8.0 | 0.00 | 0.00 | 0.00 | 80 | 1031.9 |
| 20260831010031 | 51 | 284 | 3.0 | 7.0 | 0.00 | 0.00 | 0.00 | 81 | 1031.9 |
| 20260831004510 | 48 | 238 | 3.0 | 9.0 | 0.00 | 0.00 | 0.00 | 83 | 1032.0 |
| 20260831003007 | 48 | 281 | 4.0 | 8.0 | 0.00 | 0.00 | 0.00 | 83 | 1032.1 |
| 20260831001513 | 48 | 264 | 4.0 | 7.0 | 0.00 | 0.00 | 0.00 | 84 | 1032.3 |
| 20260831000005 | 48 | 256 | 2.0 | 7.0 | 0.00 | 0.00 | 0.00 | 85 | 1032.2 |
| 20260830234600 | 47 | 263 | 0.0 | 7.0 | 0.00 | 0.00 | 0.00 | 85 | 1032.1 |
| 20260830233056 | 47 | 263 | 1.0 | 6.0 | 0.00 | 0.00 | 0.00 | 85 | 1032.3 |
| 20260830231555 | 47 | 255 | 2.0 | 5.0 | 0.00 | 0.00 | 0.00 | 86 | 1032.4 |
| 20260830230055 | 47 | 272 | 1.0 | 4.0 | 0.00 | 0.00 | 0.00 | 86 | 1032.4 |
| 20260830224602 | 46 | 271 | 2.0 | 7.0 | 0.00 | 0.00 | 0.00 | 87 | 1032.4 |
| 20260830223053 | 46 | 266 | 1.0 | 7.0 | 0.00 | 0.00 | 0.00 | 87 | 1032.3 |
| 20260830221553 | 46 | 276 | 3.0 | 5.0 | 0.00 | 0.00 | 0.00 | 87 | 1032.4 |
| 20260830220101 | 46 | 248 | 1.0 | 6.0 | 0.00 | 0.00 | 0.00 | 87 | 1032.4 |
| 20260830214600 | 46 | 278 | 1.0 | 5.0 | 0.00 | 0.00 | 0.00 | 87 | 1032.2 |
| 20260830213050 | 46 | 248 | 3.0 | 7.0 | 0.00 | 0.00 | 0.00 | 88 | 1032.3 |
| 20260830211549 | 46 | 277 | 2.0 | 7.0 | 0.00 | 0.00 | 0.00 | 88 | 1032.2 |
| 20260830210049 | 46 | 272 | 1.0 | 5.0 | 0.00 | 0.00 | 0.00 | 87 | 1032.2 |
| 20260830204547 | 46 | 266 | 0.0 | 4.0 | 0.00 | 0.00 | 0.00 | 87 | 1032.1 |
| 20260830203051 | 46 | 258 | 2.0 | 5.0 | 0.00 | 0.00 | 0.00 | 87 | 1032.0 |
| 20260830201544 | 46 | 266 | 1.0 | 5.0 | 0.00 | 0.00 | 0.00 | 87 | 1032.0 |
| 20260830200044 | 47 | 270 | 0.0 | 4.0 | 0.00 | 0.00 | 0.00 | 87 | 1031.9 |
| 20260830194545 | 47 | 277 | 2.0 | 6.0 | 0.00 | 0.00 | 0.00 | 87 | 1031.8 |
| 20260830193042 | 47 | 274 | 2.0 | 7.0 | 0.00 | 0.00 | 0.00 | 87 | 1031.8 |
| 20260830191541 | 47 | 265 | 1.0 | 5.0 | 0.00 | 0.00 | 0.00 | 87 | 1031.7 |
| 20260830190041 | 47 | 264 | 1.0 | 6.0 | 0.00 | 0.00 | 0.00 | 87 | 1031.7 |
| 20260830184539 | 47 | 259 | 2.0 | 6.0 | 0.00 | 0.00 | 0.00 | 87 | 1031.8 |
| 20260830183038 | 47 | 269 | 2.0 | 5.0 | 0.00 | 0.00 | 0.00 | 87 | 1031.9 |
| 20260830181545 | 47 | 262 | 1.0 | 4.0 | 0.00 | 0.00 | 0.00 | 87 | 1031.9 |
| 20260830180051 | 47 | 270 | 2.0 | 7.0 | 0.00 | 0.00 | 0.00 | 87 | 1031.9 |
| 20260830174536 | 47 | 271 | 3.0 | 7.0 | 0.00 | 0.00 | 0.00 | 88 | 1032.0 |
| 20260830173054 | 47 | 274 | 2.0 | 6.0 | 0.00 | 0.00 | 0.00 | 88 | 1032.1 |
| 20260830171530 | 47 | 271 | 4.0 | 7.0 | 0.00 | 0.00 | 0.00 | 88 | 1032.2 |
| 20260830170030 | 47 | 268 | 3.0 | 9.0 | 0.00 | 0.00 | 0.00 | 88 | 1032.3 |
| 20260830164529 | 47 | 257 | 4.0 | 10.0 | 0.00 | 0.00 | 0.00 | 88 | 1032.5 |
| 20260830163027 | 47 | 271 | 5.0 | 9.0 | 0.00 | 0.00 | 0.00 | 88 | 1032.4 |
| 20260830161525 | 47 | 262 | 6.0 | 11.0 | 0.00 | 0.00 | 0.00 | 88 | 1032.4 |
| 20260830160031 | 47 | 269 | 5.0 | 8.0 | 0.00 | 0.00 | 0.00 | 88 | 1032.4 |
| 20260830154523 | 47 | 262 | 6.0 | 11.0 | 0.00 | 0.00 | 0.00 | 88 | 1032.3 |
| 20260830153021 | 47 | 259 | 5.0 | 11.0 | 0.00 | 0.00 | 0.00 | 89 | 1032.4 |
| 20260830151521 | 47 | 283 | 6.0 | 10.0 | 0.00 | 0.00 | 0.00 | 89 | 1032.4 |
| 20260830150017 | 47 | 282 | 5.0 | 8.0 | 0.00 | 0.00 | 0.00 | 89 | 1032.3 |
| 20260830144518 | 47 | 262 | 4.0 | 7.0 | 0.00 | 0.00 | 0.00 | 89 | 1032.3 |
| 20260830143015 | 47 | 266 | 4.0 | 7.0 | 0.00 | 0.00 | 0.00 | 89 | 1032.4 |
| 20260830141511 | 47 | 283 | 4.0 | 6.0 | 0.00 | 0.00 | 0.00 | 89 | 1032.3 |
| 20260830140007 | 47 | 271 | 3.0 | 6.0 | 0.00 | 0.00 | 0.00 | 89 | 1032.4 |
| 20260830134520 | 47 | 274 | 3.0 | 5.0 | 0.00 | 0.00 | 0.00 | 88 | 1032.5 |
| 20260830133006 | 48 | 279 | 2.0 | 4.0 | 0.00 | 0.00 | 0.00 | 87 | 1032.6 |